Terminal Aerodrome Forecast
Issued by NWS Boise, ID

Home | Current Version | Previous Version | Text Only | Print | Product List | Glossary On
Versions: 1 2 3 4 5 6 7 8 9 10 11 12 13 14 15 16 17 18 19 20 21 22 23 24 25
000
FTUS45 KBOI 051720
TAFBOI
TAF
KBOI 051720Z 0518/0618 32015G25KT P6SM FEW100
     FM060300 31009KT P6SM SCT100
     FM061600 30010G20KT P6SM SCT120=

USA.gov is the U.S. government's official web portal to all federal, state and local government web resources and services.